period_start,C,m1,H,J0,J1,J2,J3,J4,J5,JA,JB,JC,JD,JJ,JK,JN,#
2017-04-18 00:00:55,0.07,0.29,0.00,22.88,26.29,30.14,14.60,48.03,1020.54,2034.00,3449.43,3016.90,3454.60,600.25,598.81,4.19,0000 0000 0000 0000 000000
2017-04-18 00:05:56,0.07,0.29,0.00,22.90,26.31,30.13,14.63,48.02,1020.55,2034.00,3447.82,3015.84,3453.42,600.30,598.90,4.24,0000 0000 0000 0000 000000
2017-04-18 00:10:57,0.08,0.29,0.00,22.88,26.32,30.12,14.49,48.08,1020.54,2034.00,3446.10,3014.68,3451.94,599.86,598.44,4.29,0000 0000 0000 0000 000000
2017-04-18 00:15:59,0.07,0.30,0.00,22.93,26.35,30.16,14.56,48.06,1020.53,2033.99,3444.39,3013.57,3450.57,599.70,598.11,4.34,0000 0000 0000 0000 000000
2017-04-18 00:21:00,0.07,0.30,0.00,22.99,26.36,30.15,14.65,47.98,1020.52,2033.99,3442.73,3012.50,3449.24,600.33,598.60,4.39,0000 0000 0000 0000 000000
2017-04-18 00:26:01,0.08,0.31,0.00,22.98,26.38,30.17,14.59,48.08,1020.52,2033.99,3441.03,3011.36,3447.80,600.06,598.41,4.44,0000 0000 0000 0000 000000
2017-04-18 00:31:02,0.06,0.31,0.00,22.98,26.41,30.17,14.59,48.08,1020.52,2033.94,3439.31,3010.18,3446.34,599.67,598.11,4.49,0000 0000 0000 0000 000000
2017-04-18 00:36:03,0.07,0.31,0.00,23.03,26.42,30.18,14.52,48.02,1020.52,2033.87,3437.56,3008.99,3444.77,599.65,597.93,4.54,0000 0000 0000 0000 000000
2017-04-18 00:41:05,0.05,0.32,0.00,23.08,26.45,30.22,14.59,48.15,1020.52,2033.63,3435.72,3007.84,3443.30,600.41,598.57,4.59,0000 0000 0000 0000 000000
2017-04-18 00:46:06,0.04,0.32,0.00,23.08,26.47,30.21,14.53,48.10,1020.52,2033.15,3434.01,3006.74,3441.73,599.84,598.06,4.64,0000 0000 0000 0000 000000
2017-04-18 00:51:07,0.07,0.32,0.00,23.08,26.50,30.21,14.58,48.16,1020.52,2033.04,3432.22,3005.56,3440.23,599.85,598.13,4.69,0000 0000 0000 0000 000000
2017-04-18 00:56:09,0.08,0.33,0.00,23.16,26.52,30.25,14.56,48.09,1020.53,2033.01,3430.48,3004.41,3438.69,599.94,597.98,4.74,0000 0000 0000 0000 000000
2017-04-18 01:01:10,0.07,0.33,0.00,23.18,26.55,30.27,14.59,48.13,1020.53,2033.00,3428.74,3003.25,3437.22,600.04,598.06,4.79,0000 0000 0000 0000 000000
2017-04-18 01:06:11,0.09,0.33,0.00,23.18,26.57,30.29,14.59,48.09,1020.54,2033.00,3426.88,3001.95,3435.69,600.04,598.01,4.84,0000 0000 0000 0000 000000
2017-04-18 01:11:13,0.09,0.34,0.00,23.23,26.60,30.32,14.52,48.02,1020.55,2032.98,3424.92,3000.62,3433.96,599.92,597.81,4.89,0000 0000 0000 0000 000000
2017-04-18 01:16:14,0.08,0.34,0.00,23.27,26.62,30.36,14.48,48.16,1020.55,2032.98,3422.93,2999.35,3432.32,599.89,597.68,4.94,0000 0000 0000 0000 000000
2017-04-18 01:21:16,0.11,0.35,0.00,23.27,26.65,30.36,14.58,48.07,1020.56,2032.97,3420.59,2997.83,3430.39,600.30,598.08,4.99,0000 0000 0000 0000 000000
2017-04-18 01:26:17,0.09,0.35,0.00,23.30,26.68,30.38,14.52,48.13,1020.59,2032.92,3418.31,2996.31,3428.46,599.78,597.54,5.04,0000 0000 0000 0000 000000
2017-04-18 01:31:18,0.07,0.36,0.00,23.37,26.71,30.39,14.55,48.10,1020.62,2032.53,3415.84,2994.64,3426.37,599.84,597.47,5.09,0000 0000 0000 0000 000000
2017-04-18 01:36:19,0.08,0.36,0.00,23.43,26.74,30.43,14.55,48.00,1020.60,2032.10,3413.36,2993.01,3424.30,599.85,597.36,5.14,0000 0000 0000 0000 000000
2017-04-18 01:41:21,0.10,0.37,0.00,23.43,26.77,30.45,14.53,48.17,1020.73,2032.03,3411.08,2991.55,3422.29,599.65,597.17,5.19,0000 0000 0000 0000 000000
2017-04-18 01:46:22,0.10,0.37,0.00,23.46,26.81,30.47,14.58,48.19,1020.67,2032.00,3408.85,2989.92,3420.33,600.12,597.66,5.24,0000 0000 0000 0000 000000
2017-04-18 01:51:24,0.10,0.38,0.00,23.53,26.84,30.48,14.67,48.09,1020.77,2032.00,3406.59,2988.45,3418.40,600.14,597.57,5.29,0000 0000 0000 0000 000000
2017-04-18 01:56:25,0.10,0.38,0.00,23.53,26.87,30.54,14.49,48.08,1020.76,2032.00,3404.42,2987.00,3416.57,599.94,597.33,5.34,0000 0000 0000 0000 000000
2017-04-18 02:01:26,0.10,0.39,0.00,23.55,26.90,30.58,14.63,48.08,1020.76,2032.00,3402.22,2985.57,3414.71,600.24,597.57,5.39,0000 0000 0000 0000 000000
2017-04-18 02:06:28,0.09,0.39,0.00,23.63,26.93,30.58,14.49,47.99,1020.74,2031.98,3400.06,2984.16,3412.91,600.06,597.21,5.44,0000 0000 0000 0000 000000
2017-04-18 02:11:29,0.08,0.40,0.00,23.67,26.96,30.61,14.51,47.97,1020.81,2031.83,3397.91,2982.69,3411.07,599.91,597.05,5.49,0000 0000 0000 0000 000000
2017-04-18 02:16:30,0.04,0.40,0.00,23.70,27.00,30.63,14.45,48.03,1020.74,2031.42,3395.90,2981.36,3409.42,600.13,597.17,5.54,0000 0000 0000 0000 000000
2017-04-18 02:21:32,0.06,0.40,0.00,23.76,27.03,30.66,14.49,48.09,1020.73,2031.06,3394.07,2980.14,3407.83,600.05,596.95,5.59,0000 0000 0000 0000 000000
2017-04-18 02:26:33,0.07,0.41,0.00,23.80,27.07,30.74,14.56,48.13,1020.87,2031.00,3392.44,2979.02,3406.46,600.37,597.32,5.64,0000 0000 0000 0000 000000
2017-04-18 02:31:35,0.07,0.41,0.00,23.83,27.11,30.78,14.54,48.10,1020.99,2031.00,3390.85,2978.01,3405.06,599.82,596.80,5.69,0000 0000 0000 0000 000000
2017-04-18 02:36:36,0.06,0.41,0.00,23.87,27.14,30.77,14.53,48.16,1021.00,2030.99,3389.50,2977.09,3403.82,599.96,596.87,5.74,0000 0000 0000 0000 000000
2017-04-18 02:41:37,0.07,0.42,0.00,23.95,27.17,30.79,14.57,48.02,1020.94,2030.97,3387.93,2976.16,3402.56,600.11,596.75,5.79,0000 0000 0000 0000 000000
2017-04-18 02:46:39,0.05,0.42,0.00,24.26,27.21,30.86,14.53,48.09,1020.96,2030.83,3386.47,2975.16,3401.31,600.18,596.17,5.84,0000 0000 0000 0000 000000
2017-04-18 02:51:40,0.02,0.42,0.00,24.28,27.26,30.89,14.43,48.06,1020.96,2030.23,3384.80,2974.01,3399.83,600.04,596.04,5.89,0000 0000 0000 0000 000000
2017-04-18 02:56:41,0.06,0.42,0.00,24.33,27.30,30.93,14.46,48.09,1020.98,2030.03,3383.29,2973.02,3398.52,599.87,595.79,5.94,0000 0000 0000 0000 000000
2017-04-18 03:01:42,0.06,0.43,0.00,24.33,27.34,30.94,14.47,48.09,1020.98,2030.00,3381.78,2972.06,3397.36,599.83,595.77,5.99,0000 0000 0000 0000 000000
2017-04-18 03:06:43,0.06,0.43,0.00,24.23,27.37,30.95,14.43,48.04,1020.98,2030.00,3380.42,2971.12,3396.15,599.66,595.84,6.04,0000 0000 0000 0000 000000
2017-04-18 03:11:45,0.06,0.43,0.00,24.21,27.40,30.98,14.58,48.08,1021.00,2029.98,3379.01,2970.20,3395.03,600.18,596.36,6.09,0000 0000 0000 0000 000000
2017-04-18 03:16:46,0.06,0.44,0.00,24.19,27.42,31.10,14.48,48.17,1020.99,2029.96,3377.61,2969.45,3393.87,599.94,596.12,6.14,0000 0000 0000 0000 000000
2017-04-18 03:21:47,0.04,0.44,0.00,24.18,27.43,31.09,14.51,48.18,1020.97,2029.87,3376.39,2968.69,3392.78,600.09,596.25,6.19,0000 0000 0000 0000 000000
2017-04-18 03:26:49,0.01,0.44,0.00,24.24,27.45,31.09,14.53,48.09,1020.98,2029.37,3374.88,2967.77,3391.63,599.78,595.88,6.24,0000 0000 0000 0000 000000
2017-04-18 03:31:50,0.04,0.44,0.00,24.30,27.46,31.06,14.46,48.17,1020.99,2029.10,3373.51,2966.87,3390.69,599.92,595.91,6.29,0000 0000 0000 0000 000000
2017-04-18 03:36:51,0.05,0.45,0.00,24.50,27.47,30.99,14.46,48.02,1020.99,2029.06,3372.14,2966.03,3389.55,600.14,595.73,6.34,0000 0000 0000 0000 000000
2017-04-18 03:41:53,0.06,0.45,0.00,24.57,27.50,30.99,14.43,48.05,1020.99,2029.01,3370.81,2965.16,3388.49,599.80,595.26,6.39,0000 0000 0000 0000 000000
2017-04-18 03:46:54,0.05,0.45,0.00,24.37,27.51,31.01,14.49,47.99,1021.01,2029.00,3369.64,2964.49,3387.53,599.91,595.77,6.45,0000 0000 0000 0000 000000
2017-04-18 03:51:56,0.03,0.45,0.00,24.54,27.52,31.06,14.48,48.16,1021.01,2029.00,3368.56,2963.98,3386.62,599.98,595.44,6.50,0000 0000 0000 0000 000000
2017-04-18 03:56:57,0.05,0.46,0.00,24.51,27.55,31.06,14.43,48.12,1021.01,2029.00,3367.44,2963.16,3385.74,599.79,595.28,6.55,0000 0000 0000 0000 000000
2017-04-18 04:01:58,0.03,0.46,0.00,24.46,27.55,31.13,14.40,48.00,1020.99,2029.00,3366.48,2962.78,3384.99,600.05,595.70,6.60,0000 0000 0000 0000 000000
2017-04-18 04:07:00,0.04,0.46,0.00,24.47,27.55,31.16,14.51,48.10,1020.97,2029.00,3365.56,2962.06,3384.19,600.03,595.67,6.65,0000 0000 0000 0000 000000
2017-04-18 04:12:01,0.02,0.46,0.00,24.47,27.55,31.16,14.50,48.04,1020.93,2029.00,3364.73,2961.87,3383.72,600.38,595.81,6.70,0000 0000 0000 0000 000000
2017-04-18 04:17:02,0.03,0.46,0.00,24.73,27.55,31.04,14.51,48.03,1020.82,2029.00,3363.88,2961.12,3382.98,599.85,595.00,6.75,0000 0000 0000 0000 000000
2017-04-18 04:22:03,0.03,0.47,0.00,24.65,27.56,30.95,14.46,48.13,1020.79,2029.00,3362.94,2960.89,3382.14,600.08,595.30,6.80,0000 0000 0000 0000 000000
2017-04-18 04:27:04,0.04,0.47,0.00,24.46,27.56,30.95,14.49,47.98,1020.85,2028.99,3362.06,2960.12,3381.46,600.24,595.80,6.85,0000 0000 0000 0000 000000
2017-04-18 04:32:05,0.01,0.47,0.00,24.66,27.57,31.01,14.46,47.95,1020.87,2028.99,3361.31,2960.00,3381.00,599.84,595.04,6.90,0000 0000 0000 0000 000000
2017-04-18 04:37:07,0.04,0.47,0.00,24.73,27.57,31.01,14.37,47.99,1020.94,2028.98,3360.62,2959.49,3380.32,599.70,594.80,6.95,0000 0000 0000 0000 000000
2017-04-18 04:42:08,0.02,0.47,0.00,24.80,27.57,30.98,14.45,47.99,1020.97,2028.98,3359.73,2959.01,3379.72,600.15,595.14,7.00,0000 0000 0000 0000 000000
2017-04-18 04:47:09,0.04,0.47,0.00,24.78,27.57,30.95,14.44,48.20,1020.96,2028.98,3358.80,2958.53,3378.97,600.07,595.07,7.05,0000 0000 0000 0000 000000
2017-04-18 04:52:11,0.02,0.48,0.00,24.77,27.56,30.95,14.37,48.23,1020.88,2028.98,3357.92,2958.01,3378.15,599.72,594.81,7.10,0000 0000 0000 0000 000000
2017-04-18 04:57:12,0.05,0.48,0.00,24.78,27.55,30.94,14.46,48.20,1020.81,2028.97,3356.97,2957.51,3377.46,600.05,595.14,7.15,0000 0000 0000 0000 000000
2017-04-18 05:02:13,0.02,0.48,0.00,24.83,27.55,30.91,14.42,48.16,1020.64,2028.98,3355.95,2957.01,3376.78,599.89,594.69,7.20,0000 0000 0000 0000 000000
2017-04-18 05:07:14,0.05,0.48,0.00,24.85,27.53,30.83,14.39,48.05,1020.69,2028.99,3355.03,2956.47,3376.02,599.87,594.59,7.25,0000 0000 0000 0000 000000
2017-04-18 05:12:16,0.03,0.49,0.00,24.84,27.52,30.82,14.46,48.15,1020.71,2028.99,3354.14,2956.00,3375.30,600.06,594.80,7.30,0000 0000 0000 0000 000000
2017-04-18 05:17:17,0.01,0.49,0.00,24.86,27.51,30.83,14.48,48.08,1020.93,2028.99,3353.45,2955.92,3374.96,600.34,595.12,7.35,0000 0000 0000 0000 000000
2017-04-18 05:22:19,0.04,0.49,0.00,24.87,27.50,30.83,14.42,48.15,1021.01,2028.99,3352.65,2955.15,3374.20,599.87,594.75,7.40,0000 0000 0000 0000 000000
2017-04-18 05:27:20,0.00,0.49,0.00,24.86,27.50,30.84,14.45,48.07,1021.00,2028.99,3352.03,2954.99,3373.93,600.01,594.82,7.45,0000 0000 0000 0000 000000
2017-04-18 05:32:21,0.03,0.49,0.00,24.90,27.48,30.79,14.45,48.08,1021.00,2028.99,3351.30,2954.78,3373.13,599.94,594.88,7.50,0000 0000 0000 0000 000000
2017-04-18 05:37:22,0.03,0.49,0.00,24.90,27.47,30.78,14.41,48.12,1021.01,2028.99,3350.74,2954.06,3372.82,600.21,595.22,7.55,0000 0000 0000 0000 000000
2017-04-18 05:42:24,0.01,0.49,0.00,24.88,27.46,30.75,14.41,48.15,1021.01,2028.99,3350.02,2954.00,3372.06,600.01,594.85,7.60,0000 0000 0000 0000 000000
2017-04-18 05:47:25,0.02,0.49,0.00,24.92,27.45,30.75,14.43,48.07,1020.99,2028.99,3349.40,2953.77,3371.85,600.13,594.85,7.65,0000 0000 0000 0000 000000
2017-04-18 05:52:26,0.03,0.50,0.00,24.94,27.44,30.73,14.49,48.13,1021.01,2028.99,3348.82,2953.08,3371.07,600.10,594.83,7.70,0000 0000 0000 0000 000000
2017-04-18 05:57:28,0.02,0.50,0.00,24.92,27.42,30.73,14.47,48.14,1021.00,2028.99,3348.03,2953.00,3370.76,600.31,595.08,7.75,0000 0000 0000 0000 000000
2017-04-18 06:02:29,0.03,0.50,0.00,24.92,27.42,30.73,14.45,48.10,1020.99,2029.00,3347.29,2952.72,3370.04,600.02,594.82,7.80,0000 0000 0000 0000 000000
2017-04-18 06:07:30,0.03,0.50,0.00,24.91,27.40,30.74,14.48,48.22,1020.96,2029.00,3346.62,2952.04,3369.61,600.15,594.91,7.85,0000 0000 0000 0000 000000
2017-04-18 06:12:31,0.01,0.50,0.00,24.91,27.40,30.72,14.47,48.24,1020.88,2029.01,3346.00,2952.00,3369.03,599.98,594.72,7.90,0000 0000 0000 0000 000000
2017-04-18 06:17:32,0.04,0.50,0.00,24.92,27.39,30.73,14.45,48.22,1020.77,2029.00,3345.22,2951.68,3368.62,599.89,594.43,7.95,0000 0000 0000 0000 000000
2017-04-18 06:22:34,0.03,0.51,0.00,24.92,27.37,30.71,14.36,48.23,1020.67,2029.03,3344.62,2951.04,3368.01,599.73,594.21,8.00,0000 0000 0000 0000 000000
2017-04-18 06:27:35,0.02,0.51,0.00,24.91,27.37,30.68,14.42,48.13,1020.61,2029.05,3343.96,2951.00,3367.50,600.06,594.60,8.05,0000 0000 0000 0000 000000
2017-04-18 06:32:37,0.02,0.51,0.00,24.93,27.36,30.68,14.42,48.08,1020.72,2029.08,3343.16,2950.86,3367.01,599.88,594.48,8.10,0000 0000 0000 0000 000000
2017-04-18 06:37:38,0.05,0.51,0.00,24.93,27.35,30.68,14.46,48.13,1020.65,2029.06,3342.43,2950.10,3366.38,600.09,594.64,8.15,0000 0000 0000 0000 000000
2017-04-18 06:42:39,0.14,0.51,0.00,24.94,27.35,30.65,14.37,48.13,1020.66,2029.09,3340.34,2949.01,3364.96,599.94,594.44,8.20,0000 0000 0000 0000 000000
2017-04-18 06:47:40,0.11,0.52,0.00,24.95,27.35,30.65,14.39,48.15,1020.74,2029.22,3336.93,2947.04,3362.54,600.09,594.68,8.25,0000 0000 0000 0000 000000
2017-04-18 06:52:42,0.03,0.52,0.00,24.96,27.33,30.63,14.50,48.19,1020.81,2029.31,3336.00,2946.59,3361.95,600.02,594.50,8.30,0000 0000 0000 0000 000000
2017-04-18 06:57:43,0.03,0.53,0.00,24.97,27.32,30.63,14.41,48.15,1020.75,2029.22,3335.11,2946.02,3361.12,599.80,594.30,8.35,0000 0000 0000 0000 000000
2017-04-18 07:02:44,0.03,0.53,0.00,24.95,27.32,30.61,14.46,48.13,1020.60,2029.22,3334.30,2945.72,3360.70,599.83,594.32,8.40,0000 0000 0000 0000 000000
2017-04-18 07:07:45,0.04,0.53,0.00,24.96,27.32,30.61,14.44,48.17,1020.65,2029.24,3333.61,2945.04,3360.03,599.89,594.40,8.45,0000 0000 0000 0000 000000
2017-04-18 07:12:47,0.03,0.53,0.00,24.97,27.30,30.60,14.43,48.25,1020.59,2029.29,3332.84,2944.94,3359.35,599.97,594.35,8.50,0000 0000 0000 0000 000000
2017-04-18 07:17:48,0.06,0.54,0.00,24.98,27.30,30.61,14.44,48.22,1020.71,2029.59,3332.01,2944.22,3358.92,599.91,594.42,8.55,0000 0000 0000 0000 000000
2017-04-18 07:22:50,0.02,0.54,0.00,24.99,27.30,30.58,14.44,48.18,1020.61,2029.62,3331.12,2943.99,3358.10,600.10,594.45,8.60,0000 0000 0000 0000 000000
2017-04-18 07:27:51,0.06,0.54,0.00,25.00,27.29,30.57,14.30,48.17,1020.55,2029.74,3330.42,2943.69,3357.68,599.85,594.17,8.65,0000 0000 0000 0000 000000
2017-04-18 07:32:52,0.02,0.54,0.00,25.02,27.27,30.55,14.49,48.21,1020.55,2029.75,3329.69,2943.03,3357.01,600.35,594.63,8.70,0000 0000 0000 0000 000000
2017-04-18 07:37:53,0.02,0.54,0.00,25.02,27.27,30.55,14.42,48.20,1020.54,2029.63,3328.86,2942.75,3356.31,600.10,594.48,8.76,0000 0000 0000 0000 000000
2017-04-18 07:42:54,0.05,0.54,0.00,25.00,27.27,30.55,14.44,48.25,1020.54,2029.73,3328.04,2942.03,3355.87,600.34,594.62,8.81,0000 0000 0000 0000 000000
2017-04-18 07:47:56,0.04,0.55,0.00,25.02,27.27,30.53,14.46,48.25,1020.59,2029.78,3327.22,2941.89,3355.07,600.22,594.53,8.86,0000 0000 0000 0000 000000
2017-04-18 07:52:57,0.05,0.55,0.00,25.03,27.25,30.52,14.37,48.33,1020.66,2029.88,3326.73,2941.17,3354.67,599.69,594.00,8.91,0000 0000 0000 0000 000000
2017-04-18 07:57:58,0.02,0.55,0.00,25.01,27.25,30.51,14.39,48.29,1020.66,2029.87,3325.71,2940.84,3353.89,600.07,594.40,8.96,0000 0000 0000 0000 000000
2017-04-18 08:03:00,0.05,0.55,0.00,25.03,27.25,30.52,14.39,48.29,1020.77,2029.79,3324.56,2940.05,3353.04,599.92,594.26,9.01,0000 0000 0000 0000 000000
2017-04-18 08:08:01,0.05,0.55,0.00,25.05,27.25,30.53,14.41,48.26,1020.69,2029.83,3323.54,2939.55,3352.18,599.78,594.19,9.06,0000 0000 0000 0000 000000
2017-04-18 08:13:02,0.04,0.56,0.00,25.05,27.25,30.52,14.42,48.25,1020.79,2029.93,3322.64,2939.01,3351.70,600.03,594.36,9.11,0000 0000 0000 0000 000000
2017-04-18 08:18:03,0.03,0.56,0.00,25.04,27.24,30.53,14.42,48.26,1020.74,2029.89,3321.77,2938.50,3351.02,600.22,594.62,9.16,0000 0000 0000 0000 000000
2017-04-18 08:23:05,0.03,0.56,0.00,25.04,27.24,30.54,14.46,48.21,1020.69,2029.86,3320.96,2937.99,3350.23,600.40,594.73,9.21,0000 0000 0000 0000 000000
2017-04-18 08:28:06,0.04,0.56,0.00,25.04,27.23,30.56,14.33,48.15,1020.62,2029.91,3320.11,2937.50,3349.75,599.76,594.07,9.26,0000 0000 0000 0000 000000
2017-04-18 08:33:07,0.04,0.56,0.00,25.05,27.23,30.55,14.48,48.18,1020.81,2029.94,3319.13,2936.88,3348.89,599.93,594.32,9.31,0000 0000 0000 0000 000000
2017-04-18 08:38:09,0.12,0.57,0.00,25.03,27.22,30.55,14.43,48.19,1020.95,2029.92,3316.37,2935.32,3347.23,600.07,594.57,9.36,0000 0000 0000 0000 000000
2017-04-18 08:43:10,0.03,0.57,0.00,25.03,27.22,30.52,14.50,48.25,1020.96,2029.92,3315.23,2934.89,3346.36,600.30,594.78,9.41,0000 0000 0000 0000 000000
2017-04-18 08:48:11,0.03,0.58,0.00,25.02,27.22,30.51,14.40,48.14,1021.00,2029.86,3314.49,2934.06,3345.75,600.10,594.50,9.46,0000 0000 0000 0000 000000
2017-04-18 08:53:13,0.33,0.58,0.00,25.02,27.22,30.51,14.39,48.07,1021.01,2029.72,3308.65,2930.63,3341.66,599.95,594.55,9.51,0000 0000 0000 0000 000000
2017-04-18 08:58:14,0.13,0.60,0.00,25.02,27.22,30.52,14.36,48.10,1021.00,2029.84,3304.20,2928.02,3338.62,599.82,594.41,9.56,0000 0000 0000 0000 000000
2017-04-18 09:03:15,0.04,0.60,0.00,25.02,27.20,30.50,14.37,48.10,1021.01,2029.83,3302.90,2927.12,3337.82,599.59,594.15,9.61,0000 0000 0000 0000 000000
2017-04-18 09:08:17,0.04,0.60,0.00,24.98,27.20,30.51,14.40,48.06,1021.00,2029.86,3302.02,2926.73,3337.04,600.18,594.72,9.66,0000 0000 0000 0000 000000
2017-04-18 09:13:18,0.04,0.61,0.00,25.01,27.20,30.51,14.46,48.05,1020.88,2029.91,3301.18,2926.05,3336.60,600.19,594.67,9.71,0000 0000 0000 0000 000000
2017-04-18 09:18:19,0.03,0.61,0.00,24.95,27.18,30.50,14.39,48.09,1020.65,2029.93,3300.34,2925.93,3335.99,599.99,594.46,9.76,0000 0000 0000 0000 000000
2017-04-18 09:23:20,0.04,0.61,0.00,24.94,27.17,30.47,14.43,48.17,1020.82,2029.97,3299.67,2925.22,3335.45,600.15,594.70,9.81,0000 0000 0000 0000 000000
2017-04-18 09:28:21,0.01,0.61,0.00,24.96,27.17,30.49,14.49,48.12,1020.91,2029.96,3298.95,2924.99,3334.98,600.33,594.98,9.86,0000 0000 0000 0000 000000
2017-04-18 09:33:23,0.05,0.61,0.00,24.93,27.16,30.49,14.40,48.13,1020.78,2029.97,3298.11,2924.49,3334.23,600.06,594.72,9.91,0000 0000 0000 0000 000000
2017-04-18 09:38:24,0.02,0.61,0.00,24.90,27.15,30.47,14.33,48.09,1020.71,2029.99,3297.46,2924.02,3333.97,599.88,594.50,9.96,0000 0000 0000 0000 000000
2017-04-18 09:43:25,0.03,0.61,0.00,24.91,27.13,30.44,14.40,48.16,1020.73,2029.99,3296.76,2923.81,3333.21,600.07,594.64,10.01,0000 0000 0000 0000 000000
2017-04-18 09:48:26,0.02,0.62,0.00,24.88,27.12,30.46,14.38,48.25,1020.83,2029.99,3296.01,2923.06,3332.89,599.80,594.51,10.06,0000 0000 0000 0000 000000
2017-04-18 09:53:28,0.02,0.62,0.00,24.88,27.10,30.45,14.40,48.16,1020.91,2029.99,3295.24,2922.98,3332.09,600.11,594.84,10.11,0000 0000 0000 0000 000000
2017-04-18 09:58:29,0.05,0.62,0.00,24.86,27.10,30.44,14.39,48.04,1020.92,2029.99,3294.50,2922.27,3331.69,599.79,594.63,10.16,0000 0000 0000 0000 000000
2017-04-18 10:03:30,0.01,0.62,0.00,24.83,27.07,30.41,14.50,48.20,1020.91,2029.99,3293.85,2922.00,3331.03,600.15,594.96,10.21,0000 0000 0000 0000 000000
2017-04-18 10:08:32,0.02,0.62,0.00,24.81,27.07,30.40,14.47,48.21,1020.95,2029.99,3293.06,2921.75,3330.81,599.98,595.04,10.26,0000 0000 0000 0000 000000
2017-04-18 10:13:33,0.03,0.62,0.00,24.81,27.05,30.39,14.39,48.18,1020.89,2030.00,3292.67,2921.05,3330.06,600.09,595.00,10.31,0000 0000 0000 0000 000000
2017-04-18 10:18:34,0.01,0.63,0.00,24.82,27.03,30.38,14.45,48.20,1020.75,2030.00,3291.97,2920.98,3329.82,600.03,594.79,10.36,0000 0000 0000 0000 000000
2017-04-18 10:23:35,0.05,0.63,0.00,24.84,27.02,30.37,14.49,48.10,1020.70,2030.01,3291.10,2920.35,3329.07,599.84,594.61,10.41,0000 0000 0000 0000 000000
2017-04-18 10:28:36,0.03,0.63,0.00,24.85,27.01,30.35,14.41,48.07,1020.69,2030.02,3290.37,2920.01,3328.66,600.00,594.71,10.46,0000 0000 0000 0000 000000
2017-04-18 10:33:38,0.01,0.63,0.00,24.87,27.00,30.34,14.39,47.99,1020.91,2030.05,3289.86,2919.83,3328.03,600.13,595.02,10.51,0000 0000 0000 0000 000000
2017-04-18 10:38:39,0.04,0.63,0.00,24.86,26.98,30.31,14.31,48.02,1020.99,2030.08,3289.06,2919.10,3327.87,599.71,594.57,10.56,0000 0000 0000 0000 000000
2017-04-18 10:43:40,0.05,0.64,0.00,24.86,26.97,30.30,14.40,48.12,1020.90,2030.31,3288.41,2918.99,3327.13,599.98,594.73,10.61,0000 0000 0000 0000 000000
2017-04-18 10:48:41,0.02,0.64,0.00,24.89,26.96,30.27,14.46,48.07,1020.79,2030.31,3287.73,2918.49,3326.91,599.97,594.56,10.66,0000 0000 0000 0000 000000
2017-04-18 10:53:42,0.06,0.64,0.00,24.90,26.95,30.25,14.47,47.97,1020.56,2030.53,3287.01,2918.01,3326.09,600.13,594.56,10.71,0000 0000 0000 0000 000000
2017-04-18 10:58:43,0.02,0.64,0.00,24.95,26.95,30.25,14.41,48.00,1020.55,2030.64,3286.18,2917.74,3325.89,600.04,594.46,10.76,0000 0000 0000 0000 000000
2017-04-18 11:03:45,0.05,0.64,0.00,25.00,26.94,30.25,14.34,47.86,1020.52,2030.74,3285.55,2917.08,3325.08,599.98,594.32,10.81,0000 0000 0000 0000 000000
2017-04-18 11:08:46,-0.00,0.64,0.00,25.06,26.93,30.25,14.42,48.02,1020.53,2030.67,3285.11,2916.94,3324.76,600.18,594.34,10.86,0000 0000 0000 0000 000000
2017-04-18 11:13:48,0.18,0.65,0.00,25.09,26.92,30.26,14.28,47.92,1020.53,2030.72,3282.56,2915.04,3322.46,599.85,594.03,10.91,0000 0000 0000 0000 000000
2017-04-18 11:18:49,0.13,0.66,0.00,25.11,26.92,30.25,14.32,47.88,1020.54,2030.44,3278.98,2912.41,3319.38,599.72,593.83,10.96,0000 0000 0000 0000 000000
2017-04-18 11:23:50,0.05,0.66,0.00,25.08,26.92,30.27,14.36,47.88,1020.54,2030.21,3276.94,2911.02,3317.86,600.06,594.26,11.02,0000 0000 0000 0000 000000
2017-04-18 11:28:52,0.05,0.67,0.00,25.01,26.91,30.32,14.38,47.93,1020.56,2030.15,3275.98,2910.20,3317.05,600.32,594.52,11.07,0000 0000 0000 0000 000000
2017-04-18 11:33:53,0.06,0.67,0.00,24.99,26.90,30.34,14.31,47.84,1020.54,2030.35,3274.99,2909.85,3316.38,599.69,594.07,11.12,0000 0000 0000 0000 000000
2017-04-18 11:38:54,0.06,0.67,0.00,24.95,26.90,30.35,14.39,47.89,1020.56,2030.50,3273.81,2909.05,3315.59,600.17,594.62,11.17,0000 0000 0000 0000 000000
2017-04-18 11:43:56,0.04,0.67,0.00,24.88,26.89,30.33,14.40,47.88,1020.62,2030.36,3272.65,2908.25,3314.65,600.07,594.67,11.22,0000 0000 0000 0000 000000
2017-04-18 11:48:57,0.04,0.68,0.00,24.83,26.87,30.34,14.43,47.89,1020.66,2030.21,3271.52,2907.58,3313.73,600.22,594.92,11.27,0000 0000 0000 0000 000000
2017-04-18 11:53:58,0.05,0.68,0.00,24.83,26.87,30.34,14.45,47.75,1020.76,2030.13,3270.21,2906.70,3312.68,600.42,595.12,11.32,0000 0000 0000 0000 000000
2017-04-18 11:59:00,0.14,0.68,0.00,24.81,26.85,30.34,14.41,47.74,1020.94,2030.20,3267.85,2905.01,3310.71,600.26,595.15,11.37,0000 0000 0000 0000 000000
2017-04-18 12:04:01,0.16,0.69,0.00,24.78,26.85,30.33,14.42,47.77,1021.01,2030.08,3264.48,2902.51,3307.82,599.81,594.67,11.42,0000 0000 0000 0000 000000
2017-04-18 12:09:02,0.15,0.70,0.00,24.65,26.84,30.33,14.37,47.83,1021.01,2030.05,3261.48,2900.31,3305.32,599.61,594.89,11.47,0000 0000 0000 0000 000000
2017-04-18 12:14:03,0.17,0.71,0.00,24.51,26.82,30.34,14.40,47.79,1021.01,2030.16,3258.21,2898.06,3302.85,600.14,595.77,11.52,0000 0000 0000 0000 000000
2017-04-18 12:19:04,0.12,0.72,0.00,24.43,26.81,30.33,14.50,47.79,1021.01,2030.33,3255.65,2896.34,3300.93,600.18,595.91,11.57,0000 0000 0000 0000 000000
2017-04-18 12:24:06,0.16,0.72,0.00,24.36,26.80,30.34,14.50,47.73,1021.01,2030.62,3253.04,2894.55,3298.79,600.17,596.07,11.62,0000 0000 0000 0000 000000
2017-04-18 12:29:07,0.13,0.73,0.00,24.31,26.80,30.39,14.54,47.82,1021.01,2030.69,3250.64,2892.77,3296.70,600.43,596.45,11.67,0000 0000 0000 0000 000000
2017-04-18 12:34:08,0.10,0.74,0.00,24.26,26.78,30.41,14.47,47.63,1021.00,2030.38,3247.82,2890.74,3294.35,599.73,595.81,11.72,0000 0000 0000 0000 000000
2017-04-18 12:39:10,0.19,0.74,0.00,24.19,26.77,30.44,14.53,47.71,1021.00,2030.65,3244.84,2888.74,3292.04,600.50,596.68,11.77,0000 0000 0000 0000 000000
2017-04-18 12:44:11,0.25,0.76,0.00,24.16,26.77,30.45,14.52,47.82,1020.99,2030.68,3239.81,2885.29,3288.15,600.36,596.57,11.82,0000 0000 0000 0000 000000
2017-04-18 12:49:13,0.22,0.77,0.00,24.53,26.78,30.44,14.51,47.68,1020.96,2030.50,3234.76,2881.85,3284.23,600.00,595.51,11.87,0000 0000 0000 0000 000000
2017-04-18 12:54:15,0.24,0.78,0.00,24.43,26.80,30.41,14.53,47.77,1020.90,2030.58,3229.76,2878.57,3280.43,600.47,596.13,11.92,0000 0000 0000 0000 000000
2017-04-18 12:59:16,0.21,0.79,0.00,24.23,26.80,30.47,14.46,47.61,1020.88,2030.23,3224.62,2875.15,3276.52,600.39,596.44,11.97,0000 0000 0000 0000 000000